STARLINK-1750 (46337 NORAD) Tracking and Keplerian Element Data

This shows tracking and keplerian element data for the satellite.

Feedback or suggestion? Click here.




ElementValue
Catalog46337
NameSTARLINK-1750
Epoch Orbit177
Epoch Day338.66668981
Epoch Year2020
RAAN345.1595
Inclination52.9974
Eccentricity0.0001323
Argument of Perigee64.7425
Mean Anonmoly336.4363
Mean Motion15.19451048
Decay Rate-0.01052115
L11 46337U 20062N 20338.66668981 -.01052115 00000-0 -53502-1 0 9992
L22 46337 52.9974 345.1595 0001323 64.7425 336.4363 15.19451048 1771

Live tracking and technical data element details for STARLINK-1750 (NORAD 46337). STARLINK-1750 can be tracked NOW for your location showing map with azimuth and elevation plus other details from your city location.

Track the satellite on the map from your city or location and see movement details for azimuth, elevation, latitude, longitude, range, height, and movement on the map or in text.







IsCatalogInMostPopularTable: catalog: 46337, numindb: 23
Update: records affected: 1



GetName: 46337 STARLINK-1750

Hit Count: updated at: Sat, 05 Dec 2020 05:32:59 GMT